View from above orbital plane
|
View from above satellite
|
Ground track
|
The orbit data is extracted from the following two-line orbital elements,
1 85U 61004C 21100.82430889 -.00001270 00000-0 -24116-3 0 9999
2 85 38.7791 302.6828 0389427 322.0237 35.3633 14.21640653973397
Epoch (UTC): | 10 April 2021 19:47:00 |
Eccentricity: | 0.0389427 |
inclination: | 38.7791° |
perigee height: | 539 km |
apogee height: | 1100 km |
right ascension of ascending node: | 302.6828° |
argument of perigee: | 322.0237° |
revolutions per day: | 14.21640653 |
mean anomaly at epoch: | 35.3633° |
orbit number at epoch: | 97339 |
The dashed part of the orbit path shows where the satellite is in the earth's shadow,
|
|